Location: Shenandoah County Park
(38.9356°N, 78.4524°W)
Time: 14:02:59
(UTC-05:00)

A-11 Canister half - Visible Passes

Search period start: 22 February 2024 00:00
Search period end: 03 March 2024 00:00
Orbit: 1512 x 1687 km, 47.2° (Epoch: 21 February)

Date Brightness Start Highest point End Pass type
(mag) Time Alt. Az. Time Alt. Az. Time Alt. Az.
22 Feb 9.9 02:41:48 43° ENE 02:41:48 43° ENE 02:47:51 10° ENE visible
22 Feb 9.3 04:39:59 42° WNW 04:43:26 59° NNW 04:53:08 10° ENE visible
23 Feb 10.2 02:19:58 34° ENE 02:19:58 34° ENE 02:24:50 10° ENE visible
23 Feb 9.2 04:18:09 51° WNW 04:20:22 60° NNW 04:30:06 10° ENE visible
23 Feb 9.5 06:16:58 10° WNW 06:26:48 56° N 06:36:15 10° E visible
24 Feb 10.5 01:58:08 27° ENE 01:58:08 27° ENE 02:01:50 10° ENE visible
24 Feb 9.2 03:56:18 59° NW 03:57:17 61° NNW 04:07:05 10° ENE visible
24 Feb 9.5 05:54:29 12° WNW 06:03:43 55° N 06:13:12 10° E visible
25 Feb 10.8 01:36:16 21° ENE 01:36:16 21° ENE 01:38:49 10° ENE visible
25 Feb 9.2 03:34:26 63° NNW 03:34:26 63° NNW 03:44:04 10° ENE visible
25 Feb 9.5 05:32:37 17° WNW 05:40:39 55° N 05:50:08 10° E visible
26 Feb 11.0 01:14:22 16° ENE 01:14:22 16° ENE 01:15:48 10° ENE visible
26 Feb 9.4 03:12:32 60° NNE 03:12:32 60° NNE 03:21:04 10° ENE visible
26 Feb 9.5 05:10:43 22° WNW 05:17:34 54° N 05:27:05 10° E visible
27 Feb 11.2 00:52:28 11° ENE 00:52:28 11° ENE 00:52:46 10° ENE visible
27 Feb 9.6 02:50:39 52° NE 02:50:39 52° NE 02:58:02 10° ENE visible
27 Feb 9.5 04:48:49 27° WNW 04:54:28 54° N 05:04:01 10° E visible
28 Feb 9.9 02:28:44 44° NE 02:28:44 44° NE 02:35:02 10° ENE visible
28 Feb 9.5 04:26:54 34° NW 04:31:23 54° N 04:40:58 10° E visible
29 Feb 10.2 02:06:49 36° NE 02:06:49 36° NE 02:12:01 10° ENE visible
29 Feb 9.5 04:04:59 40° NW 04:08:17 53° N 04:17:55 10° ENE visible
29 Feb 9.3 06:04:22 10° WNW 06:14:26 77° NNE 06:24:06 10° ESE visible
01 Mar 10.4 01:44:54 29° NE 01:44:54 29° NE 01:49:00 10° ENE visible
01 Mar 9.5 03:43:04 47° NW 03:45:12 53° N 03:54:50 10° ENE visible
01 Mar 9.3 05:41:19 10° WNW 05:51:25 75° NNE 06:01:07 10° ESE visible
02 Mar 10.7 01:22:59 23° ENE 01:22:59 23° ENE 01:25:59 10° ENE visible
02 Mar 9.4 03:21:09 52° NNW 03:22:06 53° N 03:31:46 10° ENE visible
02 Mar 9.3 05:19:20 14° WNW 05:28:22 72° NNE 05:38:06 10° ESE visible
